QPF
0.00 0.00 0.00 0.00 0.00 0.00 0.00 0.00 0.00 0.00 0.00 0.00 0.00 0.00 0.00 0.00 0.01 0.02 0.03 0.04 0.06 0.11 0.13 0.14 0.17 0.16 0.20 0.22 0.20 0.16 0.12 0.08 0.04 0.02 0.01 0.01 0.01 0.01 0.00 0.00 0.00 0.00 0.00 0.00
0.00 0.00 0.00 0.00 0.00 0.00 0.00 0.00 0.00 0.00 0.00 0.00 0.00 0.00 0.00 0.00 0.00 0.01 0.02 0.03 0.05 0.05 0.06 0.08 0.12 0.17 0.18 0.18 0.18 0.14 0.11 0.06 0.03 0.02 0.01 0.01 0.01 0.01 0.00 0.00 0.00 0.00 0.00 0.00
0.00 0.00 0.00 0.00 0.00 0.00 0.00 0.00 0.00 0.00 0.00 0.00 0.00 0.00 0.00 0.00 0.00 0.00 0.00 0.01 0.02 0.03 0.04 0.06 0.08 0.11 0.13 0.13 0.14 0.11 0.08 0.05 0.03 0.01 0.01 0.00 0.00 0.00 0.00 0.00 0.00 0.00 0.00 0.00
0.00 0.00 0.00 0.00 0.00 0.00 0.00 0.00 0.00 0.00 0.00 0.00 0.00 0.00 0.00 0.00 0.00 0.00 0.00 0.00 0.01 0.01 0.03 0.04 0.05 0.07 0.09 0.09 0.09 0.08 0.05 0.04 0.02 0.01 0.01 0.00 0.00 0.00 0.00 0.00 0.00 0.00 0.00 0.00
0.00 0.00 0.00 0.00 0.00 0.00 0.00 0.00 0.00 0.00 0.00 0.00 0.00 0.00 0.00 0.00 0.00 0.00 0.00 0.00 0.00 0.01 0.01 0.02 0.03 0.04 0.06 0.07 0.07 0.06 0.04 0.02 0.01 0.01 0.01 0.01 0.00 0.00 0.00 0.00 0.00 0.00 0.00 0.00
0.00 0.00 0.00 0.00 0.00 0.00 0.00 0.00 0.00 0.00 0.00 0.00 0.00 0.00 0.00 0.00 0.00 0.00 0.00 0.00 0.00 0.01 0.01 0.02 0.03 0.04 0.04 0.04 0.04 0.04 0.03 0.02 0.01 0.01 0.00 0.00 0.00 0.00 0.00 0.00 0.00 0.00 0.00 0.00
0.00 0.00 0.00 0.00 0.00 0.00 0.00 0.00 0.00 0.00 0.00 0.00 0.00 0.00 0.00 0.00 0.00 0.00 0.00 0.00 0.00 0.00 0.01 0.02 0.03 0.04 0.03 0.02 0.02 0.02 0.01 0.01 0.01 0.00 0.00 0.00 0.01 0.01 0.01 0.01 0.00 0.00 0.00 0.00
0.00 0.00 0.00 0.00 0.00 0.00 0.00 0.00 0.00 0.00 0.00 0.00 0.00 0.00 0.00 0.00 0.00 0.00 0.00 0.00 0.00 0.00 0.00 0.01 0.02 0.03 0.01 0.01 0.01 0.01 0.01 0.01 0.00 0.00 0.00 0.00 0.01 0.00 0.00 0.01 0.00 0.00 0.00 0.00
0.00 0.00 0.00 0.00 0.00 0.00 0.00 0.00 0.00 0.00 0.00 0.00 0.00 0.00 0.00 0.00 0.00 0.00 0.00 0.00 0.00 0.00 0.00 0.00 0.00 0.01 0.00 0.00 0.00 0.00 0.00 0.00 0.00 0.00 0.00 0.00 0.00 0.00 0.00 0.00 0.00 0.00 0.00 0.00
0.00 0.00 0.00 0.00 0.00 0.00 0.00 0.00 0.00 0.00 0.00 0.00 0.00 0.00 0.00 0.00 0.00 0.00 0.00 0.00 0.00 0.00 0.00 0.00 0.00 0.00 0.00 0.00 0.00 0.00 0.00 0.00 0.00 0.00 0.00 0.00 0.00 0.00 0.00 0.00 0.00 0.00 0.00 0.00
0.00 0.00 0.00 0.00 0.00 0.00 0.00 0.00 0.00 0.00 0.00 0.00 0.00 0.00 0.00 0.00 0.00 0.00 0.00 0.00 0.00 0.00 0.00 0.00 0.00 0.00 0.00 0.00 0.00 0.00 0.00 0.00 0.00 0.00 0.00 0.00 0.00 0.00 0.00 0.00 0.00 0.00 0.00 0.00
0.00 0.00 0.00 0.00 0.00 0.00 0.00 0.00 0.00 0.00 0.00 0.00 0.00 0.00 0.00 0.00 0.00 0.00 0.00 0.00 0.00 0.00 0.00 0.00 0.00 0.00 0.00 0.00 0.00 0.00 0.00 0.00 0.00 0.00 0.00 0.01 0.00 0.00 0.00 0.00 0.00 0.00 0.00 0.00
0.00 0.00 0.00 0.00 0.00 0.00 0.00 0.00 0.00 0.00 0.00 0.00 0.00 0.00 0.00 0.00 0.00 0.00 0.00 0.00 0.00 0.00 0.00 0.00 0.00 0.00 0.00 0.00 0.00 0.00 0.00 0.00 0.00 0.00 0.00 0.00 0.00 0.00 0.00 0.00 0.00 0.00 0.00 0.00
0.00 0.00 0.00 0.00 0.00 0.00 0.00 0.00 0.00 0.00 0.00 0.00 0.00 0.00 0.00 0.00 0.00 0.00 0.00 0.00 0.00 0.00 0.00 0.00 0.00 0.00 0.00 0.00 0.00 0.00 0.00 0.00 0.00 0.00 0.00 0.00 0.00 0.00 0.00 0.00 0.00 0.00 0.00 0.00
0.00 0.00 0.00 0.00 0.00 0.00 0.00 0.00 0.00 0.00 0.00 0.00 0.00 0.00 0.00 0.00 0.01 0.01 0.01 0.01 0.01 0.01 0.01 0.00 0.01 0.00 0.00 0.00 0.00 0.00 0.00 0.00 0.00 0.00 0.00 0.00 0.00 0.00 0.00 0.00 0.00 0.00 0.00 0.00
0.00 0.00 0.00 0.00 0.00 0.00 0.00 0.00 0.00 0.00 0.00 0.00 0.00 0.00 0.00 0.00 0.01 0.01 0.01 0.01 0.01 0.02 0.01 0.01 0.01 0.01 0.01 0.00 0.00 0.00 0.00 0.00 0.00 0.00 0.00 0.01 0.01 0.01 0.01 0.01 0.00 0.00 0.00 0.00
0.00 0.00 0.00 0.00 0.00 0.00 0.00 0.00 0.00 0.00 0.00 0.00 0.00 0.00 0.00 0.00 0.00 0.01 0.02 0.02 0.02 0.02 0.02 0.02 0.02 0.02 0.01 0.01 0.01 0.01 0.00 0.01 0.01 0.01 0.01 0.01 0.01 0.01 0.01 0.01 0.01 0.01 0.00 0.00
0.01 0.00 0.00 0.00 0.01 0.01 0.00 0.00 0.00 0.00 0.00 0.00 0.00 0.00 0.00 0.00 0.00 0.01 0.02 0.02 0.03 0.03 0.02 0.02 0.02 0.02 0.02 0.02 0.02 0.02 0.01 0.01 0.01 0.01 0.01 0.02 0.02 0.02 0.01 0.01 0.01 0.01 0.01 0.01
0.01 0.00 0.00 0.00 0.00 0.00 0.00 0.00 0.00 0.00 0.00 0.00 0.00 0.00 0.00 0.00 0.00 0.01 0.01 0.02 0.02 0.02 0.02 0.02 0.02 0.02 0.02 0.02 0.02 0.02 0.02 0.02 0.02 0.02 0.02 0.03 0.03 0.02 0.02 0.02 0.02 0.03 0.02 0.02
0.02 0.01 0.00 0.00 0.01 0.01 0.00 0.00 0.00 0.01 0.02 0.00 0.00 0.00 0.00 0.01 0.03 0.03 0.02 0.01 0.01 0.01 0.01 0.01 0.01 0.01 0.01 0.02 0.02 0.02 0.02 0.02 0.02 0.03 0.03 0.03 0.03 0.03 0.03 0.03 0.03 0.03 0.03 0.03
0.02 0.01 0.01 0.01 0.01 0.00 0.00 0.00 0.00 0.02 0.02 0.00 0.00 0.00 0.00 0.01 0.03 0.03 0.02 0.02 0.02 0.02 0.02 0.01 0.01 0.01 0.01 0.01 0.01 0.01 0.01 0.01 0.02 0.02 0.02 0.02 0.03 0.03 0.03 0.03 0.03 0.04 0.04 0.03
0.02 0.02 0.01 0.02 0.02 0.01 0.00 0.00 0.01 0.02 0.00 0.00 0.00 0.01 0.02 0.03 0.03 0.02 0.02 0.01 0.01 0.01 0.01 0.01 0.01 0.00 0.00 0.00 0.00 0.01 0.01 0.01 0.01 0.01 0.01 0.01 0.01 0.01 0.02 0.02 0.02 0.02 0.02 0.02
0.02 0.01 0.01 0.01 0.01 0.01 0.00 0.00 0.00 0.00 0.01 0.00 0.01 0.01 0.02 0.02 0.01 0.01 0.01 0.01 0.01 0.00 0.00 0.00 0.01 0.00 0.00 0.00 0.00 0.00 0.00 0.00 0.00 0.00 0.00 0.00 0.00 0.01 0.01 0.01 0.01 0.01 0.01 0.01
0.01 0.01 0.00 0.00 0.00 0.00 0.00 0.00 0.00 0.00 0.00 0.01 0.01 0.02 0.02 0.02 0.02 0.02 0.02 0.01 0.01 0.01 0.01 0.01 0.00 0.00 0.00 0.00 0.00 0.00 0.00 0.00 0.00 0.00 0.00 0.00 0.00 0.00 0.00 0.00 0.00 0.00 0.00 0.00
0.00 0.00 0.01 0.01 0.00 0.00 0.00 0.00 0.01 0.01 0.01 0.01 0.02 0.03 0.03 0.03 0.02 0.01 0.01 0.01 0.01 0.01 0.01 0.00 0.00 0.00 0.00 0.00 0.00 0.00 0.00 0.00 0.00 0.00 0.00 0.00 0.00 0.00 0.00 0.00 0.00 0.00 0.00 0.00
0.00 0.00 0.01 0.01 0.00 0.00 0.00 0.01 0.01 0.02 0.03 0.04 0.04 0.03 0.02 0.02 0.02 0.01 0.01 0.00 0.00 0.00 0.00 0.00 0.00 0.00 0.00 0.00 0.00 0.00 0.00 0.00 0.00 0.00 0.00 0.00 0.00 0.00 0.00 0.00 0.00 0.00 0.00 0.00
MSLP
1012.10 1012.20 1012.13 1011.95 1011.71 1011.49 1011.32 1011.26 1011.30 1011.40 1011.54 1011.68 1011.76 1011.79 1011.76 1011.71 1011.67 1011.70 1011.82 1012.05 1012.38 1012.80 1013.28 1013.77 1014.25 1014.68 1015.06 1015.39 1015.69 1015.97 1016.25 1016.55 1016.87 1017.21 1017.57 1017.93 1018.29 1018.63 1018.94 1019.21 1019.44 1019.62 1019.73 1019.78
1012.23 1012.26 1012.13 1011.91 1011.65 1011.42 1011.28 1011.24 1011.31 1011.43 1011.57 1011.67 1011.71 1011.68 1011.59 1011.49 1011.43 1011.46 1011.63 1011.94 1012.38 1012.93 1013.52 1014.11 1014.65 1015.10 1015.47 1015.76 1015.99 1016.20 1016.41 1016.65 1016.93 1017.25 1017.60 1017.96 1018.33 1018.67 1018.98 1019.26 1019.48 1019.66 1019.80 1019.88
1012.19 1012.17 1012.00 1011.75 1011.49 1011.30 1011.20 1011.21 1011.31 1011.46 1011.59 1011.66 1011.65 1011.55 1011.39 1011.23 1011.14 1011.17 1011.37 1011.75 1012.29 1012.94 1013.65 1014.33 1014.94 1015.43 1015.80 1016.06 1016.24 1016.39 1016.54 1016.73 1016.96 1017.26 1017.59 1017.95 1018.30 1018.64 1018.94 1019.20 1019.42 1019.60 1019.74 1019.85
1011.98 1011.90 1011.72 1011.47 1011.25 1011.11 1011.08 1011.16 1011.33 1011.52 1011.66 1011.72 1011.66 1011.49 1011.25 1011.02 1010.87 1010.88 1011.08 1011.49 1012.10 1012.83 1013.62 1014.39 1015.06 1015.60 1015.99 1016.24 1016.40 1016.50 1016.61 1016.76 1016.96 1017.23 1017.54 1017.88 1018.22 1018.54 1018.82 1019.06 1019.26 1019.43 1019.58 1019.71
1011.61 1011.51 1011.32 1011.11 1010.95 1010.89 1010.96 1011.14 1011.39 1011.64 1011.82 1011.88 1011.78 1011.55 1011.24 1010.93 1010.70 1010.65 1010.81 1011.21 1011.82 1012.58 1013.42 1014.23 1014.96 1015.54 1015.96 1016.23 1016.40 1016.50 1016.59 1016.72 1016.90 1017.15 1017.44 1017.76 1018.08 1018.38 1018.63 1018.85 1019.03 1019.19 1019.34 1019.49
1011.15 1011.04 1010.87 1010.71 1010.63 1010.68 1010.86 1011.16 1011.51 1011.84 1012.07 1012.14 1012.03 1011.75 1011.37 1010.98 1010.66 1010.51 1010.59 1010.92 1011.48 1012.21 1013.04 1013.87 1014.62 1015.24 1015.70 1016.01 1016.20 1016.32 1016.43 1016.57 1016.75 1016.99 1017.27 1017.58 1017.88 1018.15 1018.38 1018.57 1018.74 1018.89 1019.03 1019.19
1010.67 1010.57 1010.43 1010.35 1010.36 1010.51 1010.81 1011.21 1011.66 1012.07 1012.36 1012.46 1012.35 1012.05 1011.62 1011.14 1010.72 1010.46 1010.42 1010.64 1011.10 1011.75 1012.52 1013.32 1014.06 1014.70 1015.19 1015.55 1015.79 1015.96 1016.11 1016.28 1016.48 1016.73 1017.01 1017.30 1017.59 1017.84 1018.05 1018.23 1018.39 1018.53 1018.68 1018.85
1010.24 1010.16 1010.07 1010.05 1010.15 1010.40 1010.79 1011.28 1011.81 1012.29 1012.63 1012.77 1012.68 1012.37 1011.91 1011.37 1010.86 1010.49 1010.32 1010.39 1010.71 1011.24 1011.90 1012.62 1013.33 1013.96 1014.48 1014.88 1015.18 1015.42 1015.63 1015.84 1016.07 1016.34 1016.62 1016.91 1017.19 1017.44 1017.64 1017.82 1017.97 1018.12 1018.28 1018.47
1009.89 1009.84 1009.81 1009.86 1010.02 1010.33 1010.78 1011.33 1011.90 1012.42 1012.80 1012.97 1012.91 1012.62 1012.15 1011.58 1011.01 1010.54 1010.25 1010.18 1010.34 1010.71 1011.24 1011.86 1012.50 1013.09 1013.62 1014.06 1014.42 1014.72 1014.99 1015.25 1015.52 1015.81 1016.10 1016.40 1016.67 1016.92 1017.13 1017.31 1017.48 1017.65 1017.83 1018.03
1009.61 1009.62 1009.64 1009.74 1009.95 1010.29 1010.75 1011.30 1011.88 1012.40 1012.79 1012.99 1012.96 1012.71 1012.27 1011.72 1011.13 1010.61 1010.22 1010.02 1010.04 1010.25 1010.63 1011.12 1011.66 1012.20 1012.71 1013.17 1013.57 1013.92 1014.23 1014.54 1014.85 1015.15 1015.46 1015.76 1016.03 1016.28 1016.51 1016.71 1016.90 1017.10 1017.30 1017.54
1009.38 1009.45 1009.54 1009.69 1009.91 1010.24 1010.67 1011.18 1011.70 1012.19 1012.57 1012.78 1012.80 1012.61 1012.24 1011.75 1011.20 1010.68 1010.25 1009.96 1009.86 1009.93 1010.16 1010.51 1010.94 1011.41 1011.87 1012.31 1012.72 1013.10 1013.45 1013.78 1014.10 1014.41 1014.72 1015.01 1015.28 1015.54 1015.78 1016.01 1016.23 1016.46 1016.71 1016.97
1009.18 1009.33 1009.48 1009.66 1009.89 1010.18 1010.54 1010.96 1011.40 1011.81 1012.16 1012.38 1012.44 1012.34 1012.08 1011.70 1011.24 1010.78 1010.36 1010.04 1009.86 1009.81 1009.91 1010.14 1010.45 1010.81 1011.21 1011.61 1012.00 1012.37 1012.72 1013.05 1013.36 1013.66 1013.95 1014.22 1014.48 1014.74 1014.99 1015.24 1015.50 1015.77 1016.05 1016.35
1008.98 1009.21 1009.43 1009.64 1009.85 1010.09 1010.36 1010.67 1011.00 1011.33 1011.62 1011.84 1011.97 1011.97 1011.85 1011.61 1011.30 1010.95 1010.60 1010.30 1010.08 1009.96 1009.96 1010.06 1010.25 1010.51 1010.81 1011.14 1011.48 1011.82 1012.14 1012.44 1012.72 1012.98 1013.23 1013.47 1013.71 1013.95 1014.20 1014.46 1014.74 1015.04 1015.36 1015.69
1008.81 1009.13 1009.40 1009.63 1009.82 1009.99 1010.16 1010.35 1010.56 1010.80 1011.04 1011.27 1011.45 1011.57 1011.61 1011.56 1011.42 1011.23 1010.99 1010.76 1010.55 1010.39 1010.30 1010.30 1010.37 1010.52 1010.73 1010.97 1011.24 1011.51 1011.78 1012.03 1012.25 1012.46 1012.66 1012.85 1013.05 1013.25 1013.49 1013.75 1014.04 1014.35 1014.69 1015.03
1008.71 1009.09 1009.41 1009.64 1009.80 1009.90 1009.97 1010.05 1010.15 1010.30 1010.49 1010.73 1010.98 1011.23 1011.43 1011.57 1011.63 1011.62 1011.53 1011.39 1011.22 1011.05 1010.92 1010.83 1010.81 1010.85 1010.96 1011.11 1011.30 1011.50 1011.69 1011.88 1012.04 1012.19 1012.32 1012.45 1012.59 1012.75 1012.95 1013.18 1013.46 1013.76 1014.09 1014.42
1008.71 1009.12 1009.45 1009.68 1009.80 1009.83 1009.81 1009.78 1009.79 1009.86 1010.02 1010.28 1010.60 1010.96 1011.33 1011.66 1011.92 1012.09 1012.15 1012.12 1012.02 1011.88 1011.72 1011.58 1011.48 1011.44 1011.45 1011.52 1011.63 1011.76 1011.90 1012.02 1012.12 1012.20 1012.27 1012.33 1012.40 1012.51 1012.65 1012.83 1013.06 1013.33 1013.62 1013.93
1008.82 1009.22 1009.53 1009.72 1009.79 1009.76 1009.66 1009.54 1009.48 1009.50 1009.65 1009.92 1010.31 1010.79 1011.30 1011.80 1012.24 1012.57 1012.79 1012.87 1012.85 1012.74 1012.59 1012.42 1012.28 1012.18 1012.13 1012.14 1012.19 1012.27 1012.36 1012.43 1012.48 1012.51 1012.51 1012.51 1012.52 1012.55 1012.62 1012.74 1012.90 1013.11 1013.34 1013.59
1009.03 1009.37 1009.63 1009.75 1009.76 1009.65 1009.49 1009.31 1009.20 1009.19 1009.34 1009.64 1010.09 1010.66 1011.30 1011.93 1012.52 1013.00 1013.34 1013.53 1013.59 1013.54 1013.41 1013.24 1013.09 1012.96 1012.89 1012.87 1012.89 1012.95 1013.01 1013.06 1013.08 1013.07 1013.03 1012.97 1012.91 1012.87 1012.86 1012.90 1012.97 1013.09 1013.24 1013.42
1009.27 1009.51 1009.67 1009.72 1009.65 1009.48 1009.27 1009.06 1008.92 1008.91 1009.07 1009.41 1009.91 1010.55 1011.28 1012.01 1012.71 1013.29 1013.74 1014.03 1014.16 1014.17 1014.08 1013.95 1013.81 1013.70 1013.63 1013.61 1013.64 1013.69 1013.75 1013.80 1013.81 1013.78 1013.71 1013.61 1013.50 1013.39 1013.30 1013.24 1013.23 1013.25 1013.31 1013.40
1009.46 1009.58 1009.62 1009.58 1009.43 1009.22 1008.98 1008.76 1008.63 1008.64 1008.83 1009.20 1009.75 1010.44 1011.23 1012.03 1012.79 1013.45 1013.97 1014.33 1014.54 1014.61 1014.58 1014.50 1014.40 1014.32 1014.29 1014.30 1014.35 1014.43 1014.50 1014.56 1014.57 1014.54 1014.45 1014.32 1014.15 1013.98 1013.82 1013.68 1013.57 1013.51 1013.48 1013.49
1009.51 1009.51 1009.44 1009.31 1009.11 1008.87 1008.63 1008.44 1008.35 1008.41 1008.64 1009.05 1009.64 1010.37 1011.18 1012.01 1012.80 1013.50 1014.06 1014.48 1014.74 1014.87 1014.91 1014.89 1014.85 1014.82 1014.84 1014.89 1014.97 1015.07 1015.17 1015.24 1015.26 1015.21 1015.11 1014.95 1014.75 1014.52 1014.29 1014.08 1013.90 1013.76 1013.66 1013.61
1009.41 1009.29 1009.13 1008.94 1008.71 1008.49 1008.28 1008.15 1008.14 1008.26 1008.56 1009.02 1009.64 1010.38 1011.19 1012.02 1012.81 1013.52 1014.10 1014.54 1014.85 1015.04 1015.13 1015.17 1015.20 1015.23 1015.28 1015.37 1015.48 1015.60 1015.70 1015.77 1015.78 1015.72 1015.59 1015.41 1015.17 1014.90 1014.62 1014.36 1014.12 1013.93 1013.79 1013.70
1009.14 1008.95 1008.74 1008.53 1008.33 1008.15 1008.03 1008.00 1008.08 1008.30 1008.66 1009.18 1009.82 1010.56 1011.35 1012.16 1012.92 1013.60 1014.17 1014.63 1014.96 1015.19 1015.33 1015.43 1015.50 1015.58 1015.66 1015.77 1015.88 1015.99 1016.08 1016.12 1016.10 1016.01 1015.85 1015.62 1015.35 1015.05 1014.73 1014.44 1014.17 1013.95 1013.79 1013.69
1008.78 1008.57 1008.36 1008.19 1008.05 1007.97 1007.96 1008.06 1008.26 1008.59 1009.04 1009.60 1010.25 1010.98 1011.73 1012.48 1013.19 1013.83 1014.37 1014.81 1015.15 1015.40 1015.58 1015.71 1015.82 1015.91 1016.01 1016.11 1016.20 1016.27 1016.30 1016.29 1016.21 1016.07 1015.86 1015.60 1015.29 1014.96 1014.63 1014.31 1014.04 1013.82 1013.66 1013.56
1008.43 1008.25 1008.10 1008.01 1007.98 1008.03 1008.17 1008.41 1008.74 1009.18 1009.70 1010.30 1010.95 1011.64 1012.34 1013.02 1013.65 1014.22 1014.71 1015.12 1015.45 1015.70 1015.90 1016.05 1016.17 1016.27 1016.35 1016.41 1016.45 1016.46 1016.42 1016.32 1016.17 1015.96 1015.69 1015.38 1015.04 1014.69 1014.35 1014.03 1013.76 1013.55 1013.41 1013.34
1008.22 1008.12 1008.06 1008.09 1008.19 1008.39 1008.68 1009.06 1009.52 1010.05 1010.63 1011.24 1011.88 1012.52 1013.14 1013.72 1014.26 1014.74 1015.16 1015.53 1015.83 1016.07 1016.27 1016.43 1016.55 1016.63 1016.68 1016.69 1016.67 1016.59 1016.46 1016.28 1016.04 1015.76 1015.43 1015.08 1014.71 1014.34 1014.00 1013.69 1013.44 1013.25 1013.13 1013.07
Thickness
5796 5789 5788 5791 5793 5788 5784 5779 5777 5778 5780 5771 5765 5761 5757 5753 5745 5739 5733 5729 5725 5722 5723 5723 5724 5725 5726 5725 5727 5727 5726 5726 5726 5726 5725 5723 5722 5721 5720 5718 5714 5712 5712 5712
5786 5786 5797 5799 5796 5790 5786 5778 5781 5780 5776 5770 5765 5761 5759 5753 5747 5743 5737 5732 5727 5723 5722 5721 5723 5724 5725 5724 5725 5725 5725 5725 5726 5726 5726 5724 5723 5721 5721 5717 5713 5712 5711 5711
5780 5794 5801 5794 5792 5788 5788 5782 5779 5774 5775 5771 5764 5759 5755 5754 5751 5746 5742 5738 5735 5729 5726 5723 5724 5725 5726 5725 5726 5727 5727 5726 5726 5725 5725 5722 5719 5719 5719 5716 5715 5713 5711 5711
5788 5799 5794 5790 5791 5790 5783 5789 5781 5775 5769 5769 5761 5753 5757 5756 5750 5746 5744 5740 5737 5735 5731 5728 5727 5728 5728 5730 5731 5730 5728 5727 5726 5725 5725 5723 5720 5720 5720 5719 5718 5714 5712 5711
5787 5794 5790 5787 5791 5791 5786 5788 5782 5776 5770 5766 5765 5756 5761 5761 5753 5751 5750 5747 5743 5740 5737 5733 5733 5734 5735 5735 5734 5733 5730 5728 5727 5726 5724 5722 5722 5723 5723 5720 5717 5715 5714 5712
5792 5803 5799 5796 5797 5794 5788 5782 5779 5776 5776 5758 5759 5754 5755 5765 5762 5760 5758 5754 5750 5746 5743 5740 5739 5738 5738 5738 5737 5735 5731 5729 5727 5725 5725 5722 5722 5722 5721 5718 5718 5716 5717 5715
5782 5793 5802 5802 5789 5786 5783 5773 5764 5761 5760 5758 5763 5756 5758 5771 5773 5770 5764 5760 5756 5753 5748 5745 5742 5740 5739 5739 5739 5738 5733 5730 5729 5727 5726 5724 5723 5721 5719 5720 5720 5719 5720 5718
5772 5776 5795 5797 5791 5784 5782 5776 5755 5741 5747 5760 5764 5756 5767 5777 5777 5776 5773 5767 5761 5758 5755 5751 5748 5746 5744 5743 5742 5741 5737 5734 5733 5730 5728 5727 5725 5725 5726 5723 5723 5721 5721 5721
5777 5777 5797 5798 5798 5789 5776 5776 5784 5765 5760 5752 5761 5764 5772 5775 5773 5772 5771 5768 5764 5762 5761 5757 5754 5752 5750 5748 5746 5745 5742 5738 5736 5734 5731 5729 5728 5727 5728 5725 5722 5723 5721 5720
5789 5773 5788 5790 5790 5784 5784 5782 5769 5761 5740 5738 5751 5757 5761 5765 5767 5769 5769 5767 5767 5766 5765 5763 5760 5758 5756 5754 5751 5749 5746 5742 5740 5737 5734 5733 5731 5729 5728 5726 5724 5723 5720 5718
5790 5772 5777 5779 5773 5775 5768 5766 5766 5765 5756 5738 5736 5751 5770 5768 5770 5770 5772 5772 5771 5769 5768 5766 5764 5764 5761 5758 5755 5751 5748 5744 5741 5739 5737 5735 5734 5732 5729 5727 5725 5722 5720 5717
5786 5776 5769 5775 5784 5785 5779 5773 5765 5751 5746 5748 5745 5753 5773 5772 5773 5773 5774 5774 5774 5773 5772 5770 5767 5765 5762 5759 5757 5753 5750 5747 5744 5742 5739 5736 5734 5732 5730 5728 5726 5723 5719 5716
5780 5767 5752 5755 5760 5768 5768 5771 5770 5764 5754 5750 5745 5752 5770 5770 5769 5768 5768 5769 5770 5769 5769 5768 5766 5763 5761 5759 5757 5755 5752 5749 5747 5744 5740 5737 5734 5732 5730 5728 5726 5722 5718 5715
5782 5770 5762 5755 5761 5769 5763 5764 5766 5760 5754 5752 5753 5757 5763 5761 5760 5760 5760 5761 5764 5764 5763 5762 5761 5759 5758 5756 5755 5753 5751 5751 5748 5744 5740 5737 5735 5733 5730 5727 5724 5721 5717 5713
5775 5764 5767 5773 5776 5772 5768 5766 5764 5758 5758 5753 5758 5759 5756 5753 5751 5751 5752 5753 5754 5754 5754 5753 5753 5752 5751 5750 5749 5749 5748 5747 5744 5741 5737 5735 5733 5731 5728 5724 5721 5718 5714 5711
5768 5762 5763 5760 5768 5766 5761 5764 5763 5760 5760 5758 5757 5753 5753 5747 5746 5743 5743 5744 5743 5742 5743 5743 5743 5743 5742 5742 5742 5742 5741 5740 5738 5734 5732 5732 5729 5726 5722 5719 5716 5713 5709 5706
5761 5755 5749 5751 5760 5754 5746 5762 5763 5761 5762 5757 5751 5752 5746 5738 5733 5731 5732 5732 5730 5730 5730 5730 5730 5731 5731 5732 5733 5732 5732 5731 5729 5725 5724 5723 5721 5718 5715 5713 5710 5706 5703 5700
5752 5749 5750 5750 5742 5722 5756 5770 5765 5758 5757 5756 5750 5745 5740 5728 5722 5721 5722 5720 5718 5718 5718 5718 5719 5719 5720 5721 5721 5721 5721 5719 5717 5715 5714 5712 5711 5709 5706 5704 5701 5698 5695 5692
5750 5744 5744 5742 5734 5739 5752 5757 5756 5747 5745 5750 5744 5736 5727 5723 5718 5711 5710 5709 5707 5705 5704 5704 5705 5706 5707 5708 5708 5706 5705 5704 5702 5700 5699 5700 5700 5698 5695 5692 5690 5687 5684 5681
5738 5741 5740 5733 5723 5721 5744 5753 5756 5746 5732 5743 5739 5729 5724 5721 5714 5699 5698 5697 5694 5692 5691 5690 5691 5691 5690 5691 5693 5692 5688 5687 5684 5684 5685 5686 5685 5683 5681 5679 5677 5675 5672 5670
5723 5724 5729 5728 5723 5735 5743 5747 5743 5723 5725 5737 5735 5728 5723 5718 5712 5695 5690 5685 5682 5679 5678 5677 5677 5677 5676 5678 5677 5675 5673 5670 5670 5671 5672 5672 5671 5670 5667 5665 5663 5661 5659 5657
5721 5721 5718 5720 5713 5720 5735 5735 5729 5725 5730 5731 5729 5724 5715 5703 5694 5686 5679 5674 5672 5669 5668 5667 5664 5662 5663 5664 5662 5660 5658 5658 5659 5659 5658 5658 5657 5657 5655 5652 5649 5647 5645 5643
5719 5724 5725 5725 5721 5724 5731 5730 5727 5728 5723 5722 5719 5713 5702 5691 5683 5676 5670 5665 5662 5660 5658 5657 5655 5652 5651 5651 5651 5649 5647 5648 5647 5646 5645 5644 5643 5641 5640 5638 5637 5635 5632 5630
5712 5714 5716 5716 5720 5720 5721 5721 5719 5719 5716 5713 5708 5700 5691 5680 5672 5665 5660 5656 5653 5650 5649 5648 5646 5644 5641 5641 5640 5639 5638 5637 5635 5634 5633 5632 5631 5629 5627 5623 5623 5620 5616 5613
5708 5707 5708 5707 5709 5709 5708 5709 5709 5707 5704 5699 5693 5686 5677 5669 5661 5655 5650 5647 5644 5642 5640 5639 5636 5634 5633 5632 5630 5629 5627 5625 5623 5622 5621 5620 5619 5617 5611 5610 5605 5601 5596 5590
5701 5700 5699 5700 5702 5701 5695 5698 5698 5693 5688 5683 5677 5670 5664 5658 5649 5645 5640 5637 5635 5634 5632 5630 5628 5626 5624 5622 5620 5617 5615 5613 5610 5610 5608 5608 5606 5602 5600 5596 5593 5587 5580 5573